Regional Weather Roundup
Issued by NWS

Home | Current Version | Previous Version | Graphics & Text | Print | Product List | Glossary On
Versions: 1 2 3 4 5 6 7 8 9 10 11 12 13 14 15 16 17 18 19 20 21 22 23 24 25 26 27 28 29 30 31 32 33 34 35 36 37 38 39 40 41 42 43 44 45 46 47 48 49 50
000
ASUS43 KDMX 181306
RWRIA

WEATHER ROUNDUP FOR IOWA
NATIONAL WEATHER SERVICE DES MOINES IA
700 AM CST SAT NOV 18 2017

NOTE: "FAIR" INDICATES FEW OR NO CLOUDS BELOW 12,000 FEET WITH NO
SIGNIFICANT WEATHER AND/OR OBSTRUCTIONS TO VISIBILITY.

* - THESE STATIONS ARE NOT NWS STATIONS...THUS NOT UNDER NWS
QUALITY CONTROL.  THEY ALSO DO NOT REPORT WEATHER SUCH
AS PRECIPITATION OR FOG.

IAZ001>003-012>014-020>022-031>034-043>046-181400-
   NORTHWEST IOWA

CITY           SKY/WX    TMP DP  RH WIND       PRES   REMARKS
CARROLL *      CLOUDY    36  34  93 N16       29.75S WCI  26
CHEROKEE *     CLOUDY    32  29  89 NW12      29.82R WCI  23
DENISON *      CLOUDY    36  32  87 N16       29.79R WCI  26
LE MARS *      CLOUDY    34  28  80 NW9       29.85R WCI  26
ORANGE CITY *  CLOUDY    34  30  86 NW8G17    29.84R WCI  27
SHELDON *      MOCLDY    30  25  80 N15       29.82R WCI  19
SIOUX CITY     CLOUDY    35  30  82 NW17      29.84R WCI  25
SPENCER        CLOUDY    30  24  78 N13       29.81R WCI  20
STORM LAKE *   CLOUDY    32  28  86 N16       29.79R WCI  21
$$

IAZ055>058-069>071-079>083-090>094-181400-
   SOUTHWEST IOWA

CITY           SKY/WX    TMP DP  RH WIND       PRES   REMARKS
ATLANTIC *     CLOUDY    37  37 100 N15G26    29.72R WCI  28
AUDUBON *      MOCLDY    36  34  93 N13       29.73S WCI  27
CLARINDA *       N/A     41  39  93 N18G30    29.73R
COUNCIL BLFS * CLOUDY    37  37 100 NW17G23   29.76R WCI  28
CRESTON *      LGT RAIN  37  37 100 N17G32    29.68R WCI  28
HARLAN  *      MOCLDY    37  37 100 N15G22    29.78R WCI  28
LAMONI         LGT RAIN  39  38  96 N24G32    29.61R WCI  28
RED OAK *      CLOUDY    39  37  93 N15G26    29.74R WCI  31
SHENANDOAH *   CLOUDY    41  37  87 N16G25    29.75R
$$

IAZ047>049-059>061-072>074-084-181400-
   CENTRAL IOWA

CITY           SKY/WX    TMP DP  RH WIND       PRES   REMARKS
AMES           CLOUDY    38  38 100 N20       29.69R FOG     WCI  28
ANKENY *       LGT RAIN  39  37  93 N17G25    29.68R WCI  30
BOONE *        CLOUDY    37  36  93 N21       29.70R FOG     WCI  27
CHARITON *     MIX PCPN  37  37 100 N20G31    29.60R WCI  27
DES MOINES     LGT RAIN  39  37  92 N13G26    29.67R WCI  31
GRINNELL*      LGT RAIN  37  36  95 N22       29.63S WCI  27
KNOXVILLE *    LGT RAIN  39  37  93 N18G24    29.60S WCI  30
MARSHALLTOWN   CLOUDY    38  36  92 N15       29.65S WCI  29
NEWTON *       CLOUDY    37  37 100 N18G26    29.63S WCI  27
PELLA *        RAIN      38  37  95 N12G21    29.63F WCI  31
PERRY *        CLOUDY    38  37  96 N17G24    29.70S WCI  28
$$

IAZ004>006-015-016-023>025-035-036-181400-
   NORTH CENTRAL IOWA

CITY           SKY/WX    TMP DP  RH WIND       PRES   REMARKS
ALGONA *       CLOUDY    32  32 100 N14G22    29.77R WCI  22
CLARION *      CLOUDY    36  36 100 N14G20    29.74R WCI  27
ESTHERVILLE    CLOUDY    28  27  96 NW17      29.79R WCI  16
FORT DODGE *   CLOUDY    35  33  92 N15       29.76R WCI  25
MASON CITY     CLOUDY    35  32  88 N16       29.72R WCI  25
FOREST CITY *  CLOUDY    36  34  93 N17       29.73R FOG     WCI  25
WEBSTER CITY * CLOUDY    36  36 100 N16       29.71R WCI  26
IOWA FALLS *   CLOUDY    37  36  93 NW18      29.69R FOG     WCI  27
$$

IAZ007>011-017>019-026>030-037>042-050>054-066-181400-
   NORTHEAST IOWA

CITY           SKY/WX    TMP DP  RH WIND       PRES   REMARKS
CEDAR RAPIDS   HVY RAIN  38  37  97 N13       29.59R WCI  30
CHARLES CITY * CLOUDY    36  36 100 N15G21    29.68R FOG     WCI  26
CLINTON *      LGT RAIN  39  38  96 N22       29.51F WCI  29
DECORAH *      CLOUDY    36  36 100 N10G17    29.64R FOG     WCI  28
DUBUQUE        RAIN      36  35  96 N17       29.57R FOG     WCI  26
MONTICELLO *   MIX PCPN  37  36  93 N20       29.61R WCI  27
OELWEIN *      CLOUDY    37  37 100 N15G22    29.65R WCI  28
WATERLOO       CLOUDY    37  35  92 N16       29.66R WCI  28
$$

IAZ064-065-067-068-078-181400-
   EAST CENTRAL IOWA

CITY           SKY/WX    TMP DP  RH WIND       PRES   REMARKS
DAVENPORT      CLOUDY    40  38  93 N17       29.53S WCI  31
IOWA CITY      RAIN      41  38  89 N17G28    29.59R FOG
MT. PLEASANT * LGT RAIN  40  40 100 N17G28    29.52R WCI  31
MUSCATINE *    RAIN      41  39  93 N22       29.54R
QUAD CITIES    CLOUDY    42  38  85 N14G21    29.50R
$$

IAZ062-063-075>077-085>089-095>099-181400-
   SOUTHEAST IOWA

CITY           SKY/WX    TMP DP  RH WIND       PRES   REMARKS
BURLINGTON     RAIN      43  42  97 N28G33    29.46R FOG
FAIRFIELD *    CLOUDY    41  37  87 N23G37    29.52R
FORT MADISON * LGT RAIN  43  43 100 N26       29.44F
KEOKUK *       LGT RAIN  43  43 100 N20G32    29.41F
OSKALOOSA *    LGT RAIN  38  37  95 N20G26    29.60R WCI  28
OTTUMWA        LGT RAIN  40  38  93 N26G33    29.56S WCI  29
WASHINGTON *   LGT RAIN  39  39 100 N23       29.55F WCI  29
$$

ABBREVIATIONS USED IN REMARKS
   TC - TEMPERATURES IN CELSIUS
  WCI - WIND CHILL INDEX
   HX - HEAT INDEX
  VSB - VISIBILITY
$$





USA.gov is the U.S. government's official web portal to all federal, state and local government web resources and services.